ISS (ZARYA) 1 25544U 98067A 21063.64885076 .00002363 00000-0 50979-4 0 9994 2 25544 51.6453 139.7769 0003228 73.3524 20.8683 15.49039888272392 KESTREL EYE IIM (KE2M) 1 42982U 98067NE 21063.31307140 .00069287 00000-0 30979-3 0 9999 2 42982 51.6328 24.6484 0003409 42.7074 317.4194 15.83557233192036 SIMPL 1 42983U 98067NF 21063.60458681 .00010551 00000-0 11112-3 0 9997 2 42983 51.6372 71.3799 0003107 329.4325 30.6489 15.64899855190973 ECAMSAT 1 43019U 98067NG 21063.84768102 .00025995 00000-0 18420-3 0 9993 2 43019 51.6414 43.8338 0002543 339.8066 20.2832 15.73771335273683 DELLINGR (RBLE) 1 43021U 98067NJ 21063.71539670 .00080170 00000-0 30323-3 0 9990 2 43021 51.6307 18.3524 0001488 65.2375 294.8784 15.86985042187923 ISS DEB 1 43203U 98067NM 21063.47630108 .00051292 00000-0 29132-3 0 9992 2 43203 51.6351 42.4369 0001515 57.4861 302.6286 15.78483796176016 REMOVEDEBRIS 1 43510U 98067NT 21063.41811901 .00030313 00000-0 24525-3 0 9991 2 43510 51.6326 72.8391 0002778 354.4163 5.6803 15.70531639154224 TEMPEST-D 1 43547U 98067NV 21063.81809630 .00119727 00000-0 68054-3 0 9993 2 43547 51.6351 68.8512 0003151 355.9642 4.1333 15.78117438150342 RADSAT-G 1 43553U 98067PB 21063.76999243 .00211664 28775-4 51519-3 0 9998 2 43553 51.6366 33.2292 0003918 63.8048 296.3363 15.95812782151243 OBJECT PN 1 43638U 98067PN 21063.27982480 .00042525 00000-0 28962-3 0 9994 2 43638 51.6342 68.9607 0001706 1.0234 359.0769 15.74434563137458 OBJECT PP 1 43639U 98067PP 21063.84085177 .00632087 21462-3 73378-3 0 9992 2 43639 51.6228 36.3005 0003136 107.3443 252.7913 16.08227473137935 STARS-ME 1 43640U 98067PQ 21063.28324788 .00078506 00000-0 40921-3 0 9996 2 43640 51.6309 59.8446 0002350 353.5041 6.5929 15.80207814137570 ISS DEB (SEDA-AP) 1 43870U 98067PU 21063.40767680 .00008924 00000-0 11117-3 0 9999 2 43870 51.6356 100.7499 0003461 308.9188 51.1496 15.60762516125217 CATSAT-2 1 44029U 98067PV 21063.29592820 .00172646 00000-0 56986-3 0 9991 2 44029 51.6397 63.8825 0003769 46.1560 313.9756 15.89405400119428 DELPHINI 1 44030U 98067PW 21063.85548415 .00614355 19566-3 81706-3 0 9992 2 44030 51.6225 52.9297 0004289 81.1682 278.9816 16.06063212119589 UNITE 1 44031U 98067PX 21063.85850556 .00034149 00000-0 27479-3 0 9999 2 44031 51.6368 82.7255 0002897 2.8241 357.2773 15.70598336119197 CATSAT-1 1 44033U 98067PZ 21063.23252130 .00178338 00000-0 58876-3 0 9991 2 44033 51.6382 64.2190 0003763 37.9630 322.1641 15.89386000119325 ISS DEB 1 44303U 98067QA 21063.76158781 .00008854 00000-0 12400-3 0 9994 2 44303 51.6387 118.2807 0004388 215.2364 144.8339 15.57630876100280 ISS DEB 1 44304U 98067QB 21063.30893181 .00490246 11233-3 10473-2 0 9995 2 44304 51.6286 81.2121 0004353 51.8146 308.3255 15.98026015100745 ISS DEB 1 44306U 98067QD 21063.43405789 .00012071 00000-0 16431-3 0 9998 2 44306 51.6373 119.7533 0005441 211.1116 148.9555 15.57994310100248 RAAVANA-1 1 44329U 98067QE 21063.50097702 .00041621 00000-0 37087-3 0 9996 2 44329 51.6354 102.9421 0003573 277.5828 82.4763 15.68021318 97645 UGUISU 1 44330U 98067QF 21063.47296317 .00040996 00000-0 36923-3 0 9999 2 44330 51.6335 103.4381 0003559 276.6562 83.4029 15.67765150 97617 NEPALISAT-1 1 44331U 98067QG 21063.49289477 .00041171 00000-0 36738-3 0 9991 2 44331 51.6330 102.8212 0003638 280.3963 79.6623 15.67990972 97635 SPOOQY-1 1 44332U 98067QH 21063.65769756 .00038548 00000-0 35046-3 0 9998 2 44332 51.6341 102.4476 0003105 287.6768 72.3889 15.67564071 97617 RED-EYE 1 (PINOT) 1 44364U 98067QJ 21063.33279347 .00009840 00000-0 13767-3 0 9999 2 44364 51.6393 121.4028 0005787 211.0445 149.0206 15.57501865 95797 IOD-1 GEMS 1 44385U 98067QK 21063.50614866 .00221358 00000-0 81563-3 0 9999 2 44385 51.6327 88.6618 0003435 32.2532 327.8682 15.87062377 95296 SWIATOWID 1 44426U 98067QL 21063.43292123 .00713297 24788-3 12472-2 0 9997 2 44426 51.6342 82.4826 0004956 45.4911 95.7044 16.01519897 95382 KRAKSAT 1 44427U 98067QM 21063.66692219 .00022999 00000-0 25697-3 0 9997 2 44427 51.6399 111.4487 0001616 207.7637 246.5535 15.62651965 95064 VCC A 1 44428U 98067QN 21063.50763733 .00037724 00000-0 35472-3 0 9995 2 44428 51.6369 106.0539 0000984 263.1044 96.9840 15.66743172 95124 ENTRYSAT 1 44429U 98067QP 21063.52871901 .00053697 00000-0 42414-3 0 9996 2 44429 51.6324 100.8369 0000614 321.1023 38.9930 15.70839143 95193 VCC C 1 44430U 98067QQ 21063.47755229 .00113991 00000-0 64699-3 0 9999 2 44430 51.6295 94.4607 0002605 11.1565 348.9493 15.78173041 94108 VCC B 1 44431U 98067QR 21063.17008574 .00039140 00000-0 36456-3 0 9994 2 44431 51.6341 107.4866 0001065 260.3130 99.7746 15.66960827 95014 ISS DEB 1 44788U 98067QT 21063.50286302 .00108103 00000-0 71367-3 0 9999 2 44788 51.6335 109.7004 0002821 322.5061 37.5741 15.74765148 74049 ISS DEB 1 44789U 98067QU 21063.71349577 .00073623 00000-0 55725-3 0 9995 2 44789 51.6346 111.1406 0003158 298.0951 61.9728 15.71723177 74032 RWASAT-1 1 44790U 98067QV 21063.63908742 .00010998 00000-0 15478-3 0 9990 2 44790 51.6401 125.5021 0006675 259.4613 177.8975 15.57195639 73109 AQT-D 1 44791U 98067QW 21063.47223465 .00014830 00000-0 20567-3 0 9999 2 44791 51.6404 126.8708 0005539 238.1615 121.8838 15.57277469 73078 NARSSCUBE-1 1 44792U 98067QX 21063.72523290 .00022515 00000-0 26774-3 0 9992 2 44792 51.6373 120.9858 0003810 272.1839 87.8718 15.61042565 73172 STPSAT-4 1 45043U 98067QY 21063.47080388 .00009401 00000-0 15675-3 0 9997 2 45043 51.6403 136.5303 0004780 249.2549 110.7929 15.52719251 62186 HARP 1 45256U 98067QZ 21063.66589925 .00017553 00000-0 25408-3 0 9997 2 45256 51.6406 131.1300 0005903 245.2670 114.7707 15.55966450 58947 OBJECT RA 1 45257U 98067RA 21063.58330216 .00014134 00000-0 21150-3 0 9998 2 45257 51.6398 132.0458 0006636 247.2436 112.7854 15.55246194 58923 PHOENIX 1 45258U 98067RB 21063.46198191 .00011994 00000-0 18558-3 0 9999 2 45258 51.6398 133.4714 0005036 225.0248 135.0335 15.54502596 58867 OBJECT RC 1 45259U 98067RC 21063.45667323 .00022746 00000-0 30839-3 0 9990 2 45259 51.6389 130.4484 0005597 248.9108 111.1286 15.57551097 58931 CRYOCUBE 1 45260U 98067RD 21063.68696774 .00025542 00000-0 33993-3 0 9990 2 45260 51.6385 128.9889 0005834 252.5409 107.4945 15.57975033 58984 AZTECHSAT-1 1 45261U 98067RE 21063.46066246 .00029846 00000-0 37331-3 0 9993 2 45261 51.6378 128.2210 0005642 252.8309 107.2067 15.59535812 58967 RADSAT-U 1 45262U 98067RF 21063.23617271 .00014708 00000-0 21800-3 0 9994 2 45262 51.6412 133.5092 0005779 282.3363 77.6981 15.55474413 58884 QARMAN 1 45263U 98067RG 21063.69425138 .00020201 00000-0 27630-3 0 9996 2 45263 51.6387 129.7824 0005543 246.1845 113.8566 15.57397002 58992 SORTIE 1 45264U 98067RH 21063.46171229 .00009798 00000-0 15943-3 0 9993 2 45264 51.6410 134.9959 0006609 248.4870 111.5416 15.53339877 58872 ICS-EF (ISS DEB) 1 45265U 98067RJ 21063.58315175 .00005111 00000-0 92482-4 0 9996 2 45265 51.6406 137.2726 0004754 248.0243 112.0242 15.51517786 58536 G-SAT 1 45597U 98067RK 21063.57357157 .00014444 00000-0 21702-3 0 9994 2 45597 51.6402 133.4912 0004349 310.3516 49.7095 15.55122966 48279 QUETZAL-1 1 45598U 98067RL 21063.23926797 .00020006 00000-0 28889-3 0 9994 2 45598 51.6399 135.0053 0002649 337.9096 22.1781 15.55944503 48151 RED-EYE 2 (MERLOT) 1 45800U 98067RM 21063.58229421 .00007846 00000-0 13510-3 0 9990 2 45800 51.6409 137.2862 0000854 288.5961 71.4936 15.52081059 40391 RED-EYE 3 (CABERNET) 1 45809U 98067RN 21063.64721312 .00007869 00000-0 13543-3 0 9993 2 45809 51.6409 136.9700 0000957 267.1540 92.9340 15.52089602 39383 DEMI 1 45916U 98067RP 21063.24779849 .00020112 00000-0 29914-3 0 9991 2 45916 51.6406 136.5654 0001589 181.6138 178.4849 15.55134465 36346 TECHEDSAT 10 1 45917U 98067RQ 21063.52177327 .00666171 18855-3 19935-2 0 9998 2 45917 51.6258 119.5138 0007902 17.8216 342.3066 15.91710685 36541 SPOC 1 46921U 98067RR 21063.46768787 .00011885 00000-0 19899-3 0 9999 2 46921 51.6419 138.7807 0002563 44.6506 315.4690 15.52314310 18546 BOBCAT-1 1 46922U 98067RS 21063.24566933 .00016526 00000-0 26600-3 0 9990 2 46922 51.6420 139.5534 0002258 42.6303 317.4862 15.53102405 18475 NEUTRON-1 1 46923U 98067RT 21063.47513717 .00012233 00000-0 20541-3 0 9997 2 46923 51.6419 138.8291 0002444 57.3343 302.7883 15.52203069 18578 OBJECT RU 1 46924U 98067RU 21063.58222277 .00025403 00000-0 38334-3 0 9990 2 46924 51.6404 137.2942 0001863 66.7430 293.3757 15.54584239 18550 LEMUR-2-BAXTER-OLIVER 1 46925U 98067RV 21063.50173272 .00033826 00000-0 49952-3 0 9999 2 46925 51.6420 137.5166 0002238 78.1326 281.9916 15.55020040 18521 LEMUR-2-DJARA 1 46926U 98067RW 21063.70561128 .00025341 00000-0 38047-3 0 9999 2 46926 51.6418 136.6268 0001970 61.4277 298.6912 15.54725485 18563 DESCENT 1 46927U 98067RX 21063.47844039 .00011786 00000-0 19837-3 0 9993 2 46927 51.6419 138.8496 0002447 76.6956 283.4307 15.52177066 18489 ISS DEB [COLKA COVER] 1 47513U 98067RY 21063.61149121 .00024313 00000-0 42258-3 0 9994 2 47513 51.6465 139.7274 0004176 76.9851 283.2328 15.50664609 5618